Location: Castillon
(43.0896°N, 0.2156°E)
Time: 03:35:42
(UTC+00:00)

Cosmos 1980 Rocket - Pass Details

Date: 25 October 2021
Orbit: 828 x 851 km, 71.0° (Epoch: 07 December)

Event Time Altitude Azimuth Distance (km) Brightness Sun altitude
Rises 18:21:33 0° 251° (WSW) 3,392 6.9 -15.4°
Reaches altitude 10° 18:24:45 10° 269° (W) 2,465 6.0 -16.0°
Maximum altitude 18:28:38 19° 313° (NW) 1,937 4.7 -16.7°
Drops below altitude 10° 18:32:32 10° 356° (N) 2,482 4.7 -17.4°
Sets 18:35:48 0° 15° (NNE) 3,424 5.2 -18.0°
